Location: Colle Pacifico
(43.5333°N, 13.3167°E)
Time: 21:17:43
(UTC+00:00)

IRS-1D - Visible Passes

Search period start: 29 September 2020 00:00
Search period end: 09 October 2020 00:00
Orbit: 741 x 816 km, 98.6° (Epoch: 29 September)

Date Brightness Start Highest point End Pass type
(mag) Time Alt. Az. Time Alt. Az. Time Alt. Az.
29 Sep 5.5 01:26:42 10° NNE 01:28:50 25° NNE 01:28:50 25° NNE visible
29 Sep 5.6 03:07:47 10° NNW 03:09:18 13° NW 03:09:18 13° NW visible
30 Sep 6.0 00:53:58 10° NNE 00:55:23 18° NNE 00:55:23 18° NNE visible
30 Sep 5.3 02:33:41 10° N 02:35:52 20° NNW 02:35:52 20° NNW visible
01 Oct 6.5 00:21:44 10° NE 00:21:57 11° NE 00:21:57 11° NE visible
01 Oct 5.3 02:00:16 10° N 02:02:25 24° N 02:02:25 24° N visible
02 Oct 5.7 01:27:11 10° NNE 01:28:58 22° NNE 01:28:58 22° NNE visible
02 Oct 5.7 03:08:18 10° NNW 03:09:26 13° NW 03:09:26 13° NW visible
03 Oct 6.2 00:54:27 10° NNE 00:55:31 16° NNE 00:55:31 16° NNE visible
03 Oct 5.5 02:34:11 10° N 02:35:59 18° NNW 02:35:59 18° NNW visible
04 Oct 5.5 02:00:45 10° N 02:02:33 21° N 02:02:33 21° N visible
05 Oct 5.8 01:27:40 10° NNE 01:29:06 19° NNE 01:29:06 19° NNE visible
05 Oct 5.7 03:08:49 10° NNW 03:09:34 12° NW 03:09:34 12° NW visible
06 Oct 6.3 00:54:57 10° NNE 00:55:38 14° NNE 00:55:38 14° NNE visible
06 Oct 5.6 02:34:42 10° N 02:36:07 16° NNW 02:36:07 16° NNW visible
07 Oct 5.7 02:01:14 10° N 02:02:40 18° N 02:02:40 18° N visible
08 Oct 6.0 01:28:09 10° NNE 01:29:13 16° NNE 01:29:13 16° NNE visible
08 Oct 5.8 03:09:21 10° NNW 03:09:41 11° NNW 03:09:41 11° NNW visible
